Year,Month,Day,Hour,Minute,Value (Times are PST for temperature in C)
2020,08,18,00,00,19.00
2020,08,18,00,01,19.00
2020,08,18,00,02,19.00
2020,08,18,00,03,18.90
2020,08,18,00,04,18.90
2020,08,18,00,05,18.90
2020,08,18,00,06,18.90
2020,08,18,00,07,18.90
2020,08,18,00,08,18.90
2020,08,18,00,09,18.90
2020,08,18,00,10,18.90
2020,08,18,00,11,18.90
2020,08,18,00,12,18.90
2020,08,18,00,13,18.90
2020,08,18,00,14,18.90
2020,08,18,00,15,18.90
2020,08,18,00,16,18.90
2020,08,18,00,17,18.90
2020,08,18,00,18,18.90
2020,08,18,00,19,18.90
2020,08,18,00,20,18.90
2020,08,18,00,21,18.90
2020,08,18,00,22,18.90
2020,08,18,00,23,18.80
2020,08,18,00,24,18.80
2020,08,18,00,25,18.80
2020,08,18,00,26,18.80
2020,08,18,00,27,18.80
2020,08,18,00,28,18.80
2020,08,18,00,29,18.80
2020,08,18,00,30,18.80
2020,08,18,00,31,18.70
2020,08,18,00,32,18.70
2020,08,18,00,33,18.70
2020,08,18,00,34,18.70
2020,08,18,00,35,18.70
2020,08,18,00,36,18.70
2020,08,18,00,37,18.70
2020,08,18,00,38,18.70
2020,08,18,00,39,18.70
2020,08,18,00,40,18.70
2020,08,18,00,41,18.70
2020,08,18,00,42,18.70
2020,08,18,00,43,18.60
2020,08,18,00,44,18.60
2020,08,18,00,45,18.60
2020,08,18,00,46,18.60
2020,08,18,00,47,18.60
2020,08,18,00,48,18.60
2020,08,18,00,49,18.60
2020,08,18,00,50,18.60
2020,08,18,00,51,18.60
2020,08,18,00,52,18.60
2020,08,18,00,53,18.50
2020,08,18,00,54,18.50
2020,08,18,00,55,18.50
2020,08,18,00,56,18.50
2020,08,18,00,57,18.50
2020,08,18,00,58,18.40
2020,08,18,00,59,18.40
2020,08,18,01,00,18.40
2020,08,18,01,01,18.40
2020,08,18,01,02,18.40
2020,08,18,01,03,18.40
2020,08,18,01,04,18.40
2020,08,18,01,05,18.40
2020,08,18,01,06,18.40
2020,08,18,01,07,18.40
2020,08,18,01,08,18.40
2020,08,18,01,09,18.40
2020,08,18,01,10,18.40
2020,08,18,01,11,18.40
2020,08,18,01,12,18.40
2020,08,18,01,13,18.40
2020,08,18,01,14,18.40
2020,08,18,01,15,18.40
2020,08,18,01,16,18.40
2020,08,18,01,17,18.40
2020,08,18,01,18,18.40
2020,08,18,01,19,18.30
2020,08,18,01,20,18.30
2020,08,18,01,21,18.30
2020,08,18,01,22,18.30
2020,08,18,01,23,18.30
2020,08,18,01,24,18.30
2020,08,18,01,25,18.20
2020,08,18,01,26,18.20
2020,08,18,01,27,18.20
2020,08,18,01,28,18.20
2020,08,18,01,29,18.20
2020,08,18,01,30,18.20
2020,08,18,01,31,18.20
2020,08,18,01,32,18.20
2020,08,18,01,33,18.10
2020,08,18,01,34,18.10
2020,08,18,01,35,18.10
2020,08,18,01,36,18.10
2020,08,18,01,37,18.10
2020,08,18,01,38,18.10
2020,08,18,01,39,18.10
2020,08,18,01,40,18.10
2020,08,18,01,41,18.10
2020,08,18,01,42,18.10
2020,08,18,01,43,18.10
2020,08,18,01,44,18.00
2020,08,18,01,45,18.00
2020,08,18,01,46,18.00
2020,08,18,01,47,18.00
2020,08,18,01,48,18.00
2020,08,18,01,49,18.00
2020,08,18,01,50,18.00
2020,08,18,01,51,17.90
2020,08,18,01,52,17.90
2020,08,18,01,53,17.90
2020,08,18,01,54,17.90
2020,08,18,01,55,17.90
2020,08,18,01,56,17.90
2020,08,18,01,57,17.90
2020,08,18,01,58,17.80
2020,08,18,01,59,17.80
2020,08,18,02,00,17.80
2020,08,18,02,01,17.80
2020,08,18,02,02,17.80
2020,08,18,02,03,17.80
2020,08,18,02,04,17.70
2020,08,18,02,05,17.70
2020,08,18,02,06,17.70
2020,08,18,02,07,17.70
2020,08,18,02,08,17.70
2020,08,18,02,09,17.70
2020,08,18,02,10,17.60
2020,08,18,02,11,17.60
2020,08,18,02,12,17.60
2020,08,18,02,13,17.60
2020,08,18,02,14,17.60
2020,08,18,02,15,17.50
2020,08,18,02,16,17.50
2020,08,18,02,17,17.50
2020,08,18,02,18,17.50
2020,08,18,02,19,17.40
2020,08,18,02,20,17.40
2020,08,18,02,21,17.40
2020,08,18,02,22,17.40
2020,08,18,02,23,17.40
2020,08,18,02,24,17.40
2020,08,18,02,25,17.40
2020,08,18,02,26,17.40
2020,08,18,02,27,17.30
2020,08,18,02,28,17.30
2020,08,18,02,29,17.30
2020,08,18,02,30,17.30
2020,08,18,02,31,17.30
2020,08,18,02,32,17.30
2020,08,18,02,33,17.30
2020,08,18,02,34,17.20
2020,08,18,02,35,17.20
2020,08,18,02,36,17.20
2020,08,18,02,37,17.20
2020,08,18,02,38,17.10
2020,08,18,02,39,17.10
2020,08,18,02,40,17.10
2020,08,18,02,41,17.10
2020,08,18,02,42,17.10
2020,08,18,02,43,17.10
2020,08,18,02,44,17.00
2020,08,18,02,45,17.00
2020,08,18,02,46,17.00
2020,08,18,02,47,16.90
2020,08,18,02,48,16.90
2020,08,18,02,49,16.90
2020,08,18,02,50,16.90
2020,08,18,02,51,16.90
2020,08,18,02,52,16.90
2020,08,18,02,53,16.80
2020,08,18,02,54,16.80
2020,08,18,02,55,16.80
2020,08,18,02,56,16.80
2020,08,18,02,57,16.80
2020,08,18,02,58,16.80
2020,08,18,02,59,16.80
2020,08,18,03,00,16.80
2020,08,18,03,01,16.80
2020,08,18,03,02,16.80
2020,08,18,03,03,16.80
2020,08,18,03,04,16.80
2020,08,18,03,05,16.80
2020,08,18,03,06,16.80
2020,08,18,03,07,16.80
2020,08,18,03,08,16.80
2020,08,18,03,09,16.80
2020,08,18,03,10,16.80
2020,08,18,03,11,16.80
2020,08,18,03,12,16.80
2020,08,18,03,13,16.80
2020,08,18,03,14,16.80
2020,08,18,03,15,16.80
2020,08,18,03,16,16.80
2020,08,18,03,17,16.80
2020,08,18,03,18,16.80
2020,08,18,03,19,16.80
2020,08,18,03,20,16.80
2020,08,18,03,21,16.70
2020,08,18,03,22,16.70
2020,08,18,03,23,16.70
2020,08,18,03,24,16.70
2020,08,18,03,25,16.70
2020,08,18,03,26,16.70
2020,08,18,03,27,16.70
2020,08,18,03,28,16.60
2020,08,18,03,29,16.60
2020,08,18,03,30,16.60
2020,08,18,03,31,16.60
2020,08,18,03,32,16.60
2020,08,18,03,33,16.50
2020,08,18,03,34,16.50
2020,08,18,03,35,16.50
2020,08,18,03,36,16.50
2020,08,18,03,37,16.50
2020,08,18,03,38,16.50
2020,08,18,03,39,16.40
2020,08,18,03,40,16.40
2020,08,18,03,41,16.40
2020,08,18,03,42,16.40
2020,08,18,03,43,16.40
2020,08,18,03,44,16.40
2020,08,18,03,45,16.40
2020,08,18,03,46,16.40
2020,08,18,03,47,16.40
2020,08,18,03,48,16.30
2020,08,18,03,49,16.30
2020,08,18,03,50,16.30
2020,08,18,03,51,16.30
2020,08,18,03,52,16.30
2020,08,18,03,53,16.30
2020,08,18,03,54,16.30
2020,08,18,03,55,16.30
2020,08,18,03,56,16.30
2020,08,18,03,57,16.30
2020,08,18,03,58,16.30
2020,08,18,03,59,16.30
2020,08,18,04,00,16.40
2020,08,18,04,01,16.40
2020,08,18,04,02,16.50
2020,08,18,04,03,16.60
2020,08,18,04,04,16.60
2020,08,18,04,05,16.70
2020,08,18,04,06,16.70
2020,08,18,04,07,16.70
2020,08,18,04,08,16.70
2020,08,18,04,09,16.70
2020,08,18,04,10,16.70
2020,08,18,04,11,16.80
2020,08,18,04,12,16.80
2020,08,18,04,13,16.80
2020,08,18,04,14,16.90
2020,08,18,04,15,16.90
2020,08,18,04,16,17.00
2020,08,18,04,17,17.10
2020,08,18,04,18,17.30
2020,08,18,04,19,17.40
2020,08,18,04,20,17.50
2020,08,18,04,21,17.60
2020,08,18,04,22,17.70
2020,08,18,04,23,17.80
2020,08,18,04,24,17.90
2020,08,18,04,25,18.00
2020,08,18,04,26,18.00
2020,08,18,04,27,18.10
2020,08,18,04,28,18.10
2020,08,18,04,29,18.10
2020,08,18,04,30,18.10
2020,08,18,04,31,18.20
2020,08,18,04,32,18.20
2020,08,18,04,33,18.20
2020,08,18,04,34,18.20
2020,08,18,04,35,18.10
2020,08,18,04,36,18.10
2020,08,18,04,37,18.10
2020,08,18,04,38,18.10
2020,08,18,04,39,18.10
2020,08,18,04,40,18.00
2020,08,18,04,41,18.00
2020,08,18,04,42,18.00
2020,08,18,04,43,18.00
2020,08,18,04,44,18.00
2020,08,18,04,45,18.00
2020,08,18,04,46,18.00
2020,08,18,04,47,18.10
2020,08,18,04,48,18.10
2020,08,18,04,49,18.10
2020,08,18,04,50,18.10
2020,08,18,04,51,18.10
2020,08,18,04,52,18.10
2020,08,18,04,53,18.10
2020,08,18,04,54,18.20
2020,08,18,04,55,18.20
2020,08,18,04,56,18.20
2020,08,18,04,57,18.20
2020,08,18,04,58,18.20
2020,08,18,04,59,18.30
2020,08,18,05,00,18.30
2020,08,18,05,01,18.30
2020,08,18,05,02,18.30
2020,08,18,05,03,18.30
2020,08,18,05,04,18.30
2020,08,18,05,05,18.30
2020,08,18,05,06,18.30
2020,08,18,05,07,18.30
2020,08,18,05,08,18.30
2020,08,18,05,09,18.30
2020,08,18,05,10,18.40
2020,08,18,05,11,18.40
2020,08,18,05,12,18.50
2020,08,18,05,13,18.50
2020,08,18,05,14,18.50
2020,08,18,05,15,18.60
2020,08,18,05,16,18.60
2020,08,18,05,17,18.60
2020,08,18,05,18,18.70
2020,08,18,05,19,18.70
2020,08,18,05,20,18.80
2020,08,18,05,21,18.80
2020,08,18,05,22,18.80
2020,08,18,05,23,18.80
2020,08,18,05,24,18.80
2020,08,18,05,25,18.80
2020,08,18,05,26,18.80
2020,08,18,05,27,18.80
2020,08,18,05,28,18.80
2020,08,18,05,29,18.80
2020,08,18,05,30,18.80
2020,08,18,05,31,18.80
2020,08,18,05,32,18.80
2020,08,18,05,33,18.80
2020,08,18,05,34,18.80
2020,08,18,05,35,18.90
2020,08,18,05,36,18.90
2020,08,18,05,37,18.90
2020,08,18,05,38,18.90
2020,08,18,05,39,18.90
2020,08,18,05,40,18.90
2020,08,18,05,41,19.00
2020,08,18,05,42,19.00
2020,08,18,05,43,19.10
2020,08,18,05,44,19.10
2020,08,18,05,45,19.10
2020,08,18,05,46,19.10
2020,08,18,05,47,19.10
2020,08,18,05,48,19.10
2020,08,18,05,49,19.10
2020,08,18,05,50,19.10
2020,08,18,05,51,19.10
2020,08,18,05,52,19.20
2020,08,18,05,53,19.20
2020,08,18,05,54,19.20
2020,08,18,05,55,19.20
2020,08,18,05,56,19.20
2020,08,18,05,57,19.20
2020,08,18,05,58,19.20
2020,08,18,05,59,19.20
2020,08,18,06,00,19.20
2020,08,18,06,01,19.20
2020,08,18,06,02,19.20
2020,08,18,06,03,19.20
2020,08,18,06,04,19.20
2020,08,18,06,05,19.20
2020,08,18,06,06,19.20
2020,08,18,06,07,19.20
2020,08,18,06,08,19.20
2020,08,18,06,09,19.20
2020,08,18,06,10,19.20
2020,08,18,06,11,19.20
2020,08,18,06,12,19.20
2020,08,18,06,13,19.20
2020,08,18,06,14,19.20
2020,08,18,06,15,19.20
2020,08,18,06,16,19.20
2020,08,18,06,17,19.20
2020,08,18,06,18,19.20
2020,08,18,06,19,19.20
2020,08,18,06,20,19.20
2020,08,18,06,21,19.20
2020,08,18,06,22,19.20
2020,08,18,06,23,19.20
2020,08,18,06,24,19.20
2020,08,18,06,25,19.20
2020,08,18,06,26,19.20
2020,08,18,06,27,19.20
2020,08,18,06,28,19.20
2020,08,18,06,29,19.20
2020,08,18,06,30,19.20
2020,08,18,06,31,19.20
2020,08,18,06,32,19.20
2020,08,18,06,33,19.20
2020,08,18,06,34,19.20
2020,08,18,06,35,19.20
2020,08,18,06,36,19.20
2020,08,18,06,37,19.20
2020,08,18,06,38,19.20
2020,08,18,06,39,19.20
2020,08,18,06,40,19.20
2020,08,18,06,41,19.20
2020,08,18,06,42,19.20
2020,08,18,06,43,19.20
2020,08,18,06,44,19.20
2020,08,18,06,45,19.20
2020,08,18,06,46,19.20
2020,08,18,06,47,19.20
2020,08,18,06,48,19.20
2020,08,18,06,49,19.20
2020,08,18,06,50,19.30
2020,08,18,06,51,19.30
2020,08,18,06,52,19.30
2020,08,18,06,53,19.30
2020,08,18,06,54,19.30
2020,08,18,06,55,19.30
2020,08,18,06,56,19.40
2020,08,18,06,57,19.40
2020,08,18,06,58,19.40
2020,08,18,06,59,19.40
2020,08,18,07,00,19.40
2020,08,18,07,01,19.50
2020,08,18,07,02,19.50
2020,08,18,07,03,19.50
2020,08,18,07,04,19.50
2020,08,18,07,05,19.60
2020,08,18,07,06,19.60
2020,08,18,07,07,19.60
2020,08,18,07,08,19.60
2020,08,18,07,09,19.60
2020,08,18,07,10,19.60
2020,08,18,07,11,19.70
2020,08,18,07,12,19.70
2020,08,18,07,13,19.70
2020,08,18,07,14,19.70
2020,08,18,07,15,19.80
2020,08,18,07,16,19.80
2020,08,18,07,17,19.80
2020,08,18,07,18,19.80
2020,08,18,07,19,19.80
2020,08,18,07,20,19.80
2020,08,18,07,21,19.80
2020,08,18,07,22,19.90
2020,08,18,07,23,19.90
2020,08,18,07,24,19.90
2020,08,18,07,25,19.90
2020,08,18,07,26,19.90
2020,08,18,07,27,19.90
2020,08,18,07,28,19.80
2020,08,18,07,29,19.80
2020,08,18,07,30,19.80
2020,08,18,07,31,19.80
2020,08,18,07,32,19.70
2020,08,18,07,33,19.70
2020,08,18,07,34,19.70
2020,08,18,07,35,19.70
2020,08,18,07,36,19.60
2020,08,18,07,37,19.60
2020,08,18,07,38,19.60
2020,08,18,07,39,19.60
2020,08,18,07,40,19.60
2020,08,18,07,41,19.50
2020,08,18,07,42,19.50
2020,08,18,07,43,19.50
2020,08,18,07,44,19.50
2020,08,18,07,45,19.50
2020,08,18,07,46,19.50
2020,08,18,07,47,19.50
2020,08,18,07,48,19.50
2020,08,18,07,49,19.50
2020,08,18,07,50,19.50
2020,08,18,07,51,19.50
2020,08,18,07,52,19.50
2020,08,18,07,53,19.50
2020,08,18,07,54,19.60
2020,08,18,07,55,19.60
2020,08,18,07,56,19.60
2020,08,18,07,57,19.60
2020,08,18,07,58,19.60
2020,08,18,07,59,19.60
2020,08,18,08,00,19.60
2020,08,18,08,01,19.70
2020,08,18,08,02,19.70
2020,08,18,08,03,19.70
2020,08,18,08,04,19.70
2020,08,18,08,05,19.70
2020,08,18,08,06,19.70
2020,08,18,08,07,19.70
2020,08,18,08,08,19.70
2020,08,18,08,09,19.70
2020,08,18,08,10,19.70
2020,08,18,08,11,19.80
2020,08,18,08,12,19.80
2020,08,18,08,13,19.80
2020,08,18,08,14,19.80
2020,08,18,08,15,19.80
2020,08,18,08,16,19.90
2020,08,18,08,17,19.90
2020,08,18,08,18,20.00
2020,08,18,08,19,20.10
2020,08,18,08,20,20.20
2020,08,18,08,21,20.20
2020,08,18,08,22,20.30
2020,08,18,08,23,20.40
2020,08,18,08,24,20.50
2020,08,18,08,25,20.50
2020,08,18,08,26,20.60
2020,08,18,08,27,20.60
2020,08,18,08,28,20.70
2020,08,18,08,29,20.70
2020,08,18,08,30,20.80
2020,08,18,08,31,20.80
2020,08,18,08,32,20.90
2020,08,18,08,33,20.90
2020,08,18,08,34,20.90
2020,08,18,08,35,20.90
2020,08,18,08,36,21.00
2020,08,18,08,37,21.00
2020,08,18,08,38,21.00
2020,08,18,08,39,21.00
2020,08,18,08,40,21.10
2020,08,18,08,41,21.10
2020,08,18,08,42,21.10
2020,08,18,08,43,21.20
2020,08,18,08,44,21.20
2020,08,18,08,45,21.30
2020,08,18,08,46,21.40
2020,08,18,08,47,21.40
2020,08,18,08,48,21.50
2020,08,18,08,49,21.60
2020,08,18,08,50,21.60
2020,08,18,08,51,21.70
2020,08,18,08,52,21.80
2020,08,18,08,53,21.80
2020,08,18,08,54,21.80
2020,08,18,08,55,21.80
2020,08,18,08,56,21.80
2020,08,18,08,57,21.90
2020,08,18,08,58,21.90
2020,08,18,08,59,21.90
2020,08,18,09,00,21.90
2020,08,18,09,01,21.90
2020,08,18,09,02,21.90
2020,08,18,09,03,21.80
2020,08,18,09,04,21.90
2020,08,18,09,05,21.90
2020,08,18,09,06,22.00
2020,08,18,09,07,22.10
2020,08,18,09,08,22.20
2020,08,18,09,09,22.20
2020,08,18,09,10,22.20
2020,08,18,09,11,22.20
2020,08,18,09,12,22.20
2020,08,18,09,13,22.20
2020,08,18,09,14,22.20
2020,08,18,09,15,22.20
2020,08,18,09,16,22.20
2020,08,18,09,17,22.20
2020,08,18,09,18,22.20
2020,08,18,09,19,22.10
2020,08,18,09,20,22.00
2020,08,18,09,21,22.00
2020,08,18,09,22,22.10
2020,08,18,09,23,22.10
2020,08,18,09,24,22.20
2020,08,18,09,25,22.20
2020,08,18,09,26,22.20
2020,08,18,09,27,22.10
2020,08,18,09,28,22.10
2020,08,18,09,29,22.00
2020,08,18,09,30,21.90
2020,08,18,09,31,21.90
2020,08,18,09,32,21.90
2020,08,18,09,33,21.90
2020,08,18,09,34,21.90
2020,08,18,09,35,21.80
2020,08,18,09,36,21.80
2020,08,18,09,37,21.90
2020,08,18,09,38,21.90
2020,08,18,09,39,21.90
2020,08,18,09,40,21.90
2020,08,18,09,41,22.00
2020,08,18,09,42,22.10
2020,08,18,09,43,22.10
2020,08,18,09,44,22.10
2020,08,18,09,45,22.10
2020,08,18,09,46,22.00
2020,08,18,09,47,21.90
2020,08,18,09,48,21.90
2020,08,18,09,49,21.80
2020,08,18,09,50,21.80
2020,08,18,09,51,21.70
2020,08,18,09,52,21.70
2020,08,18,09,53,21.70
2020,08,18,09,54,21.70
2020,08,18,09,55,21.70
2020,08,18,09,56,21.70
2020,08,18,09,57,21.70
2020,08,18,09,58,21.60
2020,08,18,09,59,21.50
2020,08,18,10,00,21.50
2020,08,18,10,01,21.40
2020,08,18,10,02,21.40
2020,08,18,10,03,21.30
2020,08,18,10,04,21.30
2020,08,18,10,05,21.30
2020,08,18,10,06,21.30
2020,08,18,10,07,21.30
2020,08,18,10,08,21.30
2020,08,18,10,09,21.30
2020,08,18,10,10,21.30
2020,08,18,10,11,21.40
2020,08,18,10,12,21.40
2020,08,18,10,13,21.40
2020,08,18,10,14,21.50
2020,08,18,10,15,21.50
2020,08,18,10,16,21.50
2020,08,18,10,17,21.50
2020,08,18,10,18,21.60
2020,08,18,10,19,21.60
2020,08,18,10,20,21.70
2020,08,18,10,21,21.70
2020,08,18,10,22,21.80
2020,08,18,10,23,21.80
2020,08,18,10,24,21.90
2020,08,18,10,25,22.00
2020,08,18,10,26,22.10
2020,08,18,10,27,22.20
2020,08,18,10,28,22.40
2020,08,18,10,29,22.60
2020,08,18,10,30,22.70
2020,08,18,10,31,22.80
2020,08,18,10,32,22.80
2020,08,18,10,33,22.80
2020,08,18,10,34,22.80
2020,08,18,10,35,22.80
2020,08,18,10,36,22.80
2020,08,18,10,37,22.90
2020,08,18,10,38,23.00
2020,08,18,10,39,23.10
2020,08,18,10,40,23.20
2020,08,18,10,41,23.30
2020,08,18,10,42,23.30
2020,08,18,10,43,23.30
2020,08,18,10,44,23.30
2020,08,18,10,45,23.20
2020,08,18,10,46,23.20
2020,08,18,10,47,23.20
2020,08,18,10,48,23.10
2020,08,18,10,49,23.10
2020,08,18,10,50,23.10
2020,08,18,10,51,23.10
2020,08,18,10,52,23.10
2020,08,18,10,53,23.10
2020,08,18,10,54,23.20
2020,08,18,10,55,23.20
2020,08,18,10,56,23.20
2020,08,18,10,57,23.20
2020,08,18,10,58,23.20
2020,08,18,10,59,23.20
2020,08,18,11,00,23.30
2020,08,18,11,01,23.30
2020,08,18,11,02,23.30
2020,08,18,11,03,23.20
2020,08,18,11,04,23.00
2020,08,18,11,05,23.00
2020,08,18,11,06,23.00
2020,08,18,11,07,23.10
2020,08,18,11,08,23.10
2020,08,18,11,09,23.20
2020,08,18,11,10,23.20
2020,08,18,11,11,23.20
2020,08,18,11,12,23.20
2020,08,18,11,13,23.20
2020,08,18,11,14,23.20
2020,08,18,11,15,23.20
2020,08,18,11,16,23.20
2020,08,18,11,17,23.20
2020,08,18,11,18,23.10
2020,08,18,11,19,23.20
2020,08,18,11,20,23.20
2020,08,18,11,21,23.20
2020,08,18,11,22,23.20
2020,08,18,11,23,23.30
2020,08,18,11,24,23.30
2020,08,18,11,25,23.30
2020,08,18,11,26,23.30
2020,08,18,11,27,23.20
2020,08,18,11,28,23.20
2020,08,18,11,29,23.20
2020,08,18,11,30,23.20
2020,08,18,11,31,23.10
2020,08,18,11,32,23.10
2020,08,18,11,33,23.10
2020,08,18,11,34,23.10
2020,08,18,11,35,23.20
2020,08,18,11,36,23.20
2020,08,18,11,37,23.10
2020,08,18,11,38,23.10
2020,08,18,11,39,23.10
2020,08,18,11,40,23.10
2020,08,18,11,41,23.10
2020,08,18,11,42,23.00
2020,08,18,11,43,23.00
2020,08,18,11,44,23.00
2020,08,18,11,45,23.10
2020,08,18,11,46,23.10
2020,08,18,11,47,23.20
2020,08,18,11,48,23.30
2020,08,18,11,49,23.40
2020,08,18,11,50,23.40
2020,08,18,11,51,23.40
2020,08,18,11,52,23.40
2020,08,18,11,53,23.40
2020,08,18,11,54,23.30
2020,08,18,11,55,23.30
2020,08,18,11,56,23.30
2020,08,18,11,57,23.40
2020,08,18,11,58,23.50
2020,08,18,11,59,23.50
2020,08,18,12,00,23.60
2020,08,18,12,01,23.60
2020,08,18,12,02,23.50
2020,08,18,12,03,23.50
2020,08,18,12,04,23.50
2020,08,18,12,05,23.40
2020,08,18,12,06,23.40
2020,08,18,12,07,23.30
2020,08,18,12,08,23.30
2020,08,18,12,09,23.30
2020,08,18,12,10,23.30
2020,08,18,12,11,23.50
2020,08,18,12,12,23.60
2020,08,18,12,13,23.60
2020,08,18,12,14,23.70
2020,08,18,12,15,23.80
2020,08,18,12,16,23.80
2020,08,18,12,17,23.80
2020,08,18,12,18,23.70
2020,08,18,12,19,23.70
2020,08,18,12,20,23.70
2020,08,18,12,21,23.70
2020,08,18,12,22,23.70
2020,08,18,12,23,23.80
2020,08,18,12,24,23.80
2020,08,18,12,25,23.80
2020,08,18,12,26,23.80
2020,08,18,12,27,23.70
2020,08,18,12,28,23.70
2020,08,18,12,29,23.70
2020,08,18,12,30,23.60
2020,08,18,12,31,23.60
2020,08,18,12,32,23.60
2020,08,18,12,33,23.60
2020,08,18,12,34,23.60
2020,08,18,12,35,23.60
2020,08,18,12,36,23.60
2020,08,18,12,37,23.50
2020,08,18,12,38,23.40
2020,08,18,12,39,23.50
2020,08,18,12,40,23.50
2020,08,18,12,41,23.60
2020,08,18,12,42,23.60
2020,08,18,12,43,23.70
2020,08,18,12,44,23.70
2020,08,18,12,45,23.60
2020,08,18,12,46,23.50
2020,08,18,12,47,23.40
2020,08,18,12,48,23.30
2020,08,18,12,49,23.30
2020,08,18,12,50,23.30
2020,08,18,12,51,23.30
2020,08,18,12,52,23.40
2020,08,18,12,53,23.40
2020,08,18,12,54,23.40
2020,08,18,12,55,23.40
2020,08,18,12,56,23.40
2020,08,18,12,57,23.40
2020,08,18,12,58,23.40
2020,08,18,12,59,23.40
2020,08,18,13,00,23.50
2020,08,18,13,01,23.60
2020,08,18,13,02,23.60
2020,08,18,13,03,23.70
2020,08,18,13,04,23.70
2020,08,18,13,05,23.80
2020,08,18,13,06,23.90
2020,08,18,13,07,23.90
2020,08,18,13,08,23.90
2020,08,18,13,09,23.90
2020,08,18,13,10,23.90
2020,08,18,13,11,23.90
2020,08,18,13,12,23.90
2020,08,18,13,13,24.00
2020,08,18,13,14,24.00
2020,08,18,13,15,24.10
2020,08,18,13,16,24.20
2020,08,18,13,17,24.20
2020,08,18,13,18,24.20
2020,08,18,13,19,24.20
2020,08,18,13,20,24.20
2020,08,18,13,21,24.20
2020,08,18,13,22,24.20
2020,08,18,13,23,24.20
2020,08,18,13,24,24.20
2020,08,18,13,25,24.10
2020,08,18,13,26,24.00
2020,08,18,13,27,23.90
2020,08,18,13,28,23.90
2020,08,18,13,29,23.80
2020,08,18,13,30,23.70
2020,08,18,13,31,23.60
2020,08,18,13,32,23.60
2020,08,18,13,33,23.60
2020,08,18,13,34,23.60
2020,08,18,13,35,23.60
2020,08,18,13,36,23.70
2020,08,18,13,37,23.70
2020,08,18,13,38,23.70
2020,08,18,13,39,23.80
2020,08,18,13,40,23.90
2020,08,18,13,41,23.90
2020,08,18,13,42,24.00
2020,08,18,13,43,24.10
2020,08,18,13,44,24.20
2020,08,18,13,45,24.20
2020,08,18,13,46,24.20
2020,08,18,13,47,24.20
2020,08,18,13,48,24.20
2020,08,18,13,49,24.10
2020,08,18,13,50,24.10
2020,08,18,13,51,24.10
2020,08,18,13,52,24.10
2020,08,18,13,53,24.20
2020,08,18,13,54,24.20
2020,08,18,13,55,24.30
2020,08,18,13,56,24.30
2020,08,18,13,57,24.20
2020,08,18,13,58,24.10
2020,08,18,13,59,24.10
2020,08,18,14,00,24.10
2020,08,18,14,01,24.10
2020,08,18,14,02,24.10
2020,08,18,14,03,24.10
2020,08,18,14,04,24.00
2020,08,18,14,05,23.90
2020,08,18,14,06,23.90
2020,08,18,14,07,23.80
2020,08,18,14,08,23.80
2020,08,18,14,09,23.90
2020,08,18,14,10,23.90
2020,08,18,14,11,24.00
2020,08,18,14,12,24.00
2020,08,18,14,13,24.10
2020,08,18,14,14,24.20
2020,08,18,14,15,24.20
2020,08,18,14,16,24.10
2020,08,18,14,17,24.10
2020,08,18,14,18,24.10
2020,08,18,14,19,24.10
2020,08,18,14,20,24.10
2020,08,18,14,21,24.10
2020,08,18,14,22,24.10
2020,08,18,14,23,24.10
2020,08,18,14,24,24.10
2020,08,18,14,25,24.10
2020,08,18,14,26,24.20
2020,08,18,14,27,24.30
2020,08,18,14,28,24.30
2020,08,18,14,29,24.40
2020,08,18,14,30,24.50
2020,08,18,14,31,24.60
2020,08,18,14,32,24.70
2020,08,18,14,33,24.60
2020,08,18,14,34,24.60
2020,08,18,14,35,24.50
2020,08,18,14,36,24.50
2020,08,18,14,37,24.50
2020,08,18,14,38,24.50
2020,08,18,14,39,24.60
2020,08,18,14,40,24.60
2020,08,18,14,41,24.60
2020,08,18,14,42,24.60
2020,08,18,14,43,24.50
2020,08,18,14,44,24.50
2020,08,18,14,45,24.60
2020,08,18,14,46,24.60
2020,08,18,14,47,24.60
2020,08,18,14,48,24.70
2020,08,18,14,49,24.70
2020,08,18,14,50,24.70
2020,08,18,14,51,24.70
2020,08,18,14,52,24.80
2020,08,18,14,53,24.70
2020,08,18,14,54,24.70
2020,08,18,14,55,24.60
2020,08,18,14,56,24.60
2020,08,18,14,57,24.50
2020,08,18,14,58,24.40
2020,08,18,14,59,24.30
2020,08,18,15,00,24.20
2020,08,18,15,01,24.20
2020,08,18,15,02,24.20
2020,08,18,15,03,24.20
2020,08,18,15,04,24.30
2020,08,18,15,05,24.30
2020,08,18,15,06,24.30
2020,08,18,15,07,24.20
2020,08,18,15,08,24.10
2020,08,18,15,09,24.10
2020,08,18,15,10,24.00
2020,08,18,15,11,24.00
2020,08,18,15,12,24.00
2020,08,18,15,13,24.00
2020,08,18,15,14,24.00
2020,08,18,15,15,24.00
2020,08,18,15,16,24.00
2020,08,18,15,17,24.00
2020,08,18,15,18,24.00
2020,08,18,15,19,24.10
2020,08,18,15,20,24.20
2020,08,18,15,21,24.20
2020,08,18,15,22,24.10
2020,08,18,15,23,24.10
2020,08,18,15,24,24.10
2020,08,18,15,25,24.10
2020,08,18,15,26,24.10
2020,08,18,15,27,24.10
2020,08,18,15,28,24.10
2020,08,18,15,29,24.10
2020,08,18,15,30,24.20
2020,08,18,15,31,24.30
2020,08,18,15,32,24.30
2020,08,18,15,33,24.30
2020,08,18,15,34,24.30
2020,08,18,15,35,24.30
2020,08,18,15,36,24.30
2020,08,18,15,37,24.30
2020,08,18,15,38,24.30
2020,08,18,15,39,24.30
2020,08,18,15,40,24.30
2020,08,18,15,41,24.30
2020,08,18,15,42,24.30
2020,08,18,15,43,24.40
2020,08,18,15,44,24.40
2020,08,18,15,45,24.40
2020,08,18,15,46,24.40
2020,08,18,15,47,24.30
2020,08,18,15,48,24.30
2020,08,18,15,49,24.30
2020,08,18,15,50,24.30
2020,08,18,15,51,24.20
2020,08,18,15,52,24.30
2020,08,18,15,53,24.30
2020,08,18,15,54,24.30
2020,08,18,15,55,24.40
2020,08,18,15,56,24.50
2020,08,18,15,57,24.60
2020,08,18,15,58,24.50
2020,08,18,15,59,24.40
2020,08,18,16,00,24.30
2020,08,18,16,01,24.20
2020,08,18,16,02,24.20
2020,08,18,16,03,24.20
2020,08,18,16,04,24.20
2020,08,18,16,05,24.30
2020,08,18,16,06,24.30
2020,08,18,16,07,24.20
2020,08,18,16,08,24.20
2020,08,18,16,09,24.20
2020,08,18,16,10,24.20
2020,08,18,16,11,24.30
2020,08,18,16,12,24.30
2020,08,18,16,13,24.40
2020,08,18,16,14,24.50
2020,08,18,16,15,24.50
2020,08,18,16,16,24.40
2020,08,18,16,17,24.40
2020,08,18,16,18,24.40
2020,08,18,16,19,24.40
2020,08,18,16,20,24.40
2020,08,18,16,21,24.30
2020,08,18,16,22,24.30
2020,08,18,16,23,24.20
2020,08,18,16,24,24.20
2020,08,18,16,25,24.10
2020,08,18,16,26,24.10
2020,08,18,16,27,24.10
2020,08,18,16,28,24.10
2020,08,18,16,29,24.20
2020,08,18,16,30,24.20
2020,08,18,16,31,24.30
2020,08,18,16,32,24.40
2020,08,18,16,33,24.40
2020,08,18,16,34,24.40
2020,08,18,16,35,24.40
2020,08,18,16,36,24.50
2020,08,18,16,37,24.50
2020,08,18,16,38,24.50
2020,08,18,16,39,24.50
2020,08,18,16,40,24.40
2020,08,18,16,41,24.40
2020,08,18,16,42,24.30
2020,08,18,16,43,24.30
2020,08,18,16,44,24.30
2020,08,18,16,45,24.40
2020,08,18,16,46,24.50
2020,08,18,16,47,24.50
2020,08,18,16,48,24.60
2020,08,18,16,49,24.60
2020,08,18,16,50,24.60
2020,08,18,16,51,24.60
2020,08,18,16,52,24.60
2020,08,18,16,53,24.60
2020,08,18,16,54,24.70
2020,08,18,16,55,24.80
2020,08,18,16,56,24.90
2020,08,18,16,57,24.90
2020,08,18,16,58,24.90
2020,08,18,16,59,24.90
2020,08,18,17,00,24.80
2020,08,18,17,01,24.80
2020,08,18,17,02,24.80
2020,08,18,17,03,24.80
2020,08,18,17,04,24.80
2020,08,18,17,05,24.80
2020,08,18,17,06,24.80
2020,08,18,17,07,24.80
2020,08,18,17,08,24.90
2020,08,18,17,09,25.00
2020,08,18,17,10,25.10
2020,08,18,17,11,25.20
2020,08,18,17,12,25.20
2020,08,18,17,13,25.20
2020,08,18,17,14,25.20
2020,08,18,17,15,25.10
2020,08,18,17,16,25.10
2020,08,18,17,17,25.00
2020,08,18,17,18,25.00
2020,08,18,17,19,24.80